This is the latest recevied weather packets stored in our database for station/object KA7EII-13. If no packets are shown the sender has not sent any weather packets the latest 10 day(s).
| Time | Temp. | Humidity | Pressure | Rain* | Wind** | Luminosity | Snow |
|---|---|---|---|---|---|---|---|
| 1778023439 | 17.78° C | 26% | 1098 hPa | 0 mm | - | 253 W/m² | - |
| 1778023135 | 17.78° C | 27% | 1097.7 hPa | 0 mm | - | 305 W/m² | - |
| 1778022833 | 17.78° C | 26% | 1097.4 hPa | 0 mm | - | 355 W/m² | - |
| 1778022531 | 18.33° C | 25% | 1097.6 hPa | 0 mm | - | 375 W/m² | - |
| 1778022228 | 17.78° C | 25% | 1097.8 hPa | 0 mm | - | 409 W/m² | - |
| 1778021925 | 18.33° C | 26% | 1097.8 hPa | 0 mm | - | 438 W/m² | - |
| 1778021622 | 17.78° C | 27% | 1097.8 hPa | 0 mm | - | 490 W/m² | - |
| 1778021317 | 17.78° C | 26% | 1097.7 hPa | 0 mm | - | 326 W/m² | - |
| 1778021016 | 18.33° C | 26% | 1097.6 hPa | 0 mm | - | 368 W/m² | - |
| 1778020713 | 18.89° C | 27% | 1097.8 hPa | 0 mm | - | 446 W/m² | - |
| 1778020410 | 18.33° C | 25% | 1097.8 hPa | 0 mm | - | 459 W/m² | - |
| 1778020105 | 18.33° C | 26% | 1098 hPa | 0 mm | - | 483 W/m² | - |
| 1778019801 | 18.33° C | 24% | 1098 hPa | 0 mm | - | 486 W/m² | - |
| 1778019499 | 18.89° C | 25% | 1097.8 hPa | 0 mm | - | 530 W/m² | - |
| 1778019195 | 17.78° C | 27% | 1098.1 hPa | 0 mm | - | 582 W/m² | - |
| 1778018893 | 17.78° C | 24% | 1098 hPa | 0 mm | - | 620 W/m² | - |
| 1778018589 | 18.89° C | 24% | 1098.2 hPa | 0 mm | - | 597 W/m² | - |
| 1778018288 | 17.78° C | 24% | 1098.2 hPa | 0 mm | - | 611 W/m² | - |
| 1778017985 | 18.33° C | 23% | 1098.5 hPa | 0 mm | - | 618 W/m² | - |
| 1778017683 | 18.33° C | 26% | 1098.4 hPa | 0 mm | - | 596 W/m² | - |
| 1778017380 | 18.33° C | 26% | 1098.5 hPa | 0 mm | - | 619 W/m² | - |
| 1778017077 | 18.33° C | 25% | 1098.8 hPa | 0 mm | - | 615 W/m² | - |
| 1778016775 | 17.78° C | 30% | 1098.9 hPa | 0 mm | - | 611 W/m² | - |
| 1778016470 | 18.33° C | 29% | 1098.5 hPa | 0 mm | - | 679 W/m² | - |
| 1778016168 | 17.78° C | 29% | 1098.5 hPa | 0 mm | - | 662 W/m² | - |
* Rain latest hour (hover to see other rain measurements)
** Current wind speed in m/s (hover to see current wind gust speed)